[Date Prev][Date Next][Thread Prev][Thread Next] - [Date Index][Thread Index][Author Index]
2 Line ISS Keps 2-6 = 2 LIne Suitsat also updated
- Subject: [sarex] 2 Line ISS Keps 2-6 = 2 LIne Suitsat also updated
- From: "Dave Larsen PhD" <doc@xxxxxxxxxxx>
- Date: Sun, 5 Feb 2006 19:18:35 -0800
ISS
1 25544U 98067A 06037.01390046 .00014187 00000-0 99238-4 0 2932
2 25544 051.6437 142.0732 0008873 241.1655 100.6034 15.74529506412484
SUITSAT
1 28933U 05035C 06036.44563706 .00025094 00000-0 17004-3 0 40
2 28933 051.6429 144.9955 0008573 241.3316 118.6148 15.74796959 230
----
Via the sarex mailing list at AMSAT.ORG courtesy of AMSAT-NA.
To unsubscribe, send "unsubscribe sarex" to Majordomo@amsat.org
AMSAT Home